Flag for Germany Weather past 2 weeks in Pirmasens, Rhineland-Palatinate, Germany

Now
45 °F

Partly cloudy.


Feels Like: 39 °F
Forecast: 33 / 45 °F
Wind: 12 mph from Southwest

Location: Ramstein

Current Time: Mar 2, 2015 at 6:28:02 AM

Latest Report: Mar 2, 2015 at 5:58 AM


Visibility: N/A

Pressure: 29.65 "Hg

Humidity: 80%

Dew point: 39 °F

Location of PirmasensLocation

Historic Weather in Pirmasens — Graph

°F

Pirmasens temperature yesterday

Maximum temperature yesterday: 50 °F (at 2:58 PM)
Minimum temperature yesterday: 37 °F (at 5:02 AM)
Average temperature yesterday: 44 °F

Past Weeks' High & Low Weather Summary

 TemperatureHumidityPressure
High54 °F (Feb 20, 3:58 PM)100% (Feb 21, 6:58 PM)30.75 "Hg (Feb 21, 6:58 PM)
Low25 °F (Feb 28, 5:58 AM)36% (Feb 20, 10:58 PM)29.46 "Hg (Feb 21, 6:04 AM)
Average37 °F81%30.03 "Hg
* Reported Feb 15 4:58 AM — Mar 2 4:58 AM, Pirmasens, Weather by CustomWeather, © 2015

Note: Actual official high and low records may vary slightly from our data, if they occured in-between our weather recording intervals... More about our weather records

Advertising

Pirmasens weather history for previous 24 hours

 ConditionsComfort  
Time TempWeatherWind HumidityBarometerVisibility
4:58 AM
Mon, Mar 2
45 °FPartly cloudy.14 mph85%29.63 "HgN/A
4:00 AM46 °FLight rain. Passing clouds.16 mph82%29.60 "HgN/A
3:58 AM46 °FPassing clouds.15 mph82%29.62 "HgN/A
3:02 AM48 °FLight rain. Passing clouds.16 mph87%29.59 "HgN/A
2:58 AM47 °FLight rain. Passing clouds.16 mph88%29.59 "HgN/A
1:58 AM48 °FLight rain. Fog.13 mph94%29.59 "Hg6 mi
12:58 AM46 °FLight rain. Fog.7 mph93%29.60 "Hg6 mi
11:58 PM
Sun, Mar 1
48 °FLight rain. Mostly cloudy.13 mph82%29.64 "HgN/A
10:58 PM48 °FMostly cloudy.14 mph79%29.68 "HgN/A
9:58 PM48 °FPassing clouds.13 mph82%29.70 "HgN/A
8:59 PM46 °FPassing clouds.12 mph87%29.70 "HgN/A
6:58 PM47 °FPassing clouds.7 mph86%29.74 "HgN/A
6:04 PM46 °FBroken clouds.10 mph93%29.72 "HgN/A
5:58 PM47 °FCloudy.10 mph90%29.75 "HgN/A
4:58 PM47 °FMostly cloudy.10 mph92%29.75 "HgN/A
3:58 PM49 °FMostly cloudy.10 mph77%29.75 "HgN/A
2:58 PM50 °FPartly sunny.10 mph76%29.75 "HgN/A
1:58 PM48 °FMostly cloudy.8 mph82%29.75 "HgN/A
1:02 PM46 °FMostly cloudy.13 mph87%29.74 "HgN/A
12:58 PM46 °FOvercast.12 mph87%29.77 "HgN/A
12:03 PM45 °FOvercast.9 mph87%29.75 "HgN/A
11:58 AM45 °FOvercast.10 mph87%29.78 "HgN/A
10:58 AM42 °FLight rain. Low clouds.14 mph91%29.78 "HgN/A
9:58 AM42 °FLow clouds.15 mph92%29.76 "HgN/A
8:58 AM41 °FLow clouds.14 mph91%29.76 "HgN/A
7:58 AM39 °FDrizzle. Low clouds.9 mph93%29.79 "HgN/A
6:58 AM39 °FLight rain. Low clouds.8 mph92%29.78 "HgN/A
Weather by CustomWeather, © 2015

See weather overviewHow to use our weather pages